Cecil Field, FL

5:32 AM EDT on September 23, 2017 (GMT -0400)
Cecil

Weather History for KVQQ - November, 2013

Change the Weather History Date:

Tuesday, November 26, 2013

  Actual Average (KNIP) Record (KNIP)
Temperature  
Mean Temperature 64 °F -  
Max Temperature 75 °F 68 °F 81 °F (2010)
Min Temperature 53 °F 51 °F 39 °F (2012)
Degree Days  
Heating Degree Days 1    
Growing Degree Days 14 (Base 50)    
Moisture  
Dew Point 64 °F    
Average Humidity 94    
Maximum Humidity 100    
Minimum Humidity 83    
Precipitation  
Precipitation 0.28 in - - ()
Sea Level Pressure  
Sea Level Pressure 29.92 in    
Wind  
Wind Speed 4 mph (SSE)    
Max Wind Speed 15 mph    
Max Gust Speed -    
Visibility 6 miles    
Events Rain    
Averages and records for this station are not official NWS values.
T = Trace of Precipitation, MM = Missing Value Source: NWS Daily Summary

Daily Weather History Graph

Daily Weather History Graph

Search for Another Location

Airport or City:

Trip Planner

Search our weather history database for the weather conditions in past years. The results will help you decide how hot, cold, wet, or windy it might be!

Date:

Astronomy

Nov. 26, 2013 Rise Set
Actual Time 7:02 AM EST 5:27 PM EST
Civil Twilight 6:36 AM EST 5:53 PM EST
Nautical Twilight 6:07 AM EST 6:22 PM EST
Astronomical Twilight 5:38 AM EST 6:51 PM EST
Moon 12:32 AM EST (11/26) 1:08 PM EST (11/26)
Length of Visible Light 11h 16m
Length of Day
10h 24m
Last Quarter, 41% of the Moon is Illuminated
Nov 26
Last Quarter
Dec 2
New
Dec 9
First Quarter
Dec 17
Full
Dec 25
Last Quarter

Hourly Weather History & Observations

Time (EST) Temp. Dew Point Humidity Pressure Visibility Wind Dir Wind Speed Gust Speed Precip Events Conditions
12:15 AM 55.4 °F 55.4 °F 100% 30.13 in 10.0 mi Calm Calm - N/A   Clear
12:35 AM 55.4 °F 55.4 °F 100% 30.12 in 9.0 mi Calm Calm - N/A   Clear
12:55 AM 55.4 °F 53.6 °F 94% 30.12 in 10.0 mi Calm Calm - N/A   Clear
1:15 AM 53.6 °F 53.6 °F 100% 30.11 in 9.0 mi Calm Calm - N/A   Clear
1:35 AM 55.4 °F 53.6 °F 94% 30.11 in 8.0 mi Calm Calm - N/A   Clear
1:55 AM 53.6 °F 53.6 °F 100% 30.10 in 9.0 mi Calm Calm - N/A   Clear
2:15 AM 53.6 °F 53.6 °F 100% 30.08 in 7.0 mi Calm Calm - N/A   Clear
2:35 AM 55.4 °F 55.4 °F 100% 30.07 in 10.0 mi Calm Calm - N/A   Clear
2:55 AM 55.4 °F 55.4 °F 100% 30.06 in 10.0 mi Calm Calm - N/A   Clear
3:15 AM 59.0 °F 57.2 °F 94% 30.05 in 10.0 mi Calm Calm - N/A   Clear
3:35 AM 62.6 °F 59.0 °F 88% 30.05 in 10.0 mi Calm Calm - N/A   Clear
3:55 AM 62.6 °F 59.0 °F 88% 30.04 in 10.0 mi Calm Calm - N/A   Clear
4:15 AM 64.4 °F 60.8 °F 88% 30.04 in 10.0 mi East 3.5 mph - N/A   Clear
4:35 AM 64.4 °F 60.8 °F 88% 30.03 in 8.0 mi East 3.5 mph - N/A   Clear
4:55 AM 64.4 °F 60.8 °F 88% 30.03 in 6.0 mi East 3.5 mph - N/A   Partly Cloudy
5:15 AM 64.4 °F 62.6 °F 94% 30.02 in 10.0 mi ESE 4.6 mph - N/A   Clear
5:35 AM 64.4 °F 62.6 °F 94% 30.01 in 10.0 mi East 3.5 mph - N/A   Clear
5:55 AM 66.2 °F 62.6 °F 88% 30.00 in 7.0 mi ESE 4.6 mph - N/A   Mostly Cloudy
6:15 AM 66.2 °F 62.6 °F 88% 30.00 in 8.0 mi ESE 4.6 mph - N/A   Mostly Cloudy
6:35 AM 66.2 °F 62.6 °F 88% 29.99 in 9.0 mi ESE 4.6 mph - N/A   Mostly Cloudy
6:50 AM 66.2 °F 64.4 °F 94% 29.99 in 7.0 mi ESE 6.9 mph - N/A   Mostly Cloudy
7:50 AM 66.2 °F 64.4 °F 94% 29.97 in 7.0 mi East 5.8 mph - N/A   Mostly Cloudy
8:15 AM 66.2 °F 64.4 °F 94% 29.99 in 2.5 mi SSE 4.6 mph - N/A Rain Light Rain
8:50 AM 66.2 °F 66.2 °F 100% 29.97 in 2.0 mi SE 9.2 mph - N/A Rain Light Rain
9:50 AM 68.0 °F 66.2 °F 94% 29.95 in 2.0 mi SE 13.8 mph - N/A Rain Rain
10:50 AM 68.0 °F 68.0 °F 100% 29.93 in 1.0 mi SSE 12.7 mph - N/A Rain Rain
11:50 AM 68.0 °F 68.0 °F 100% 29.90 in 3.0 mi SSE 15.0 mph - N/A Rain Light Rain
1:50 PM 71.6 °F 69.8 °F 94% 29.82 in 5.0 mi South 11.5 mph - N/A   Mostly Cloudy
2:50 PM 75.2 °F 71.6 °F 89% 29.78 in 7.0 mi South 11.5 mph - N/A   Scattered Clouds
3:50 PM 75.2 °F 69.8 °F 83% 29.77 in 7.0 mi South 11.5 mph - N/A   Scattered Clouds
4:50 PM 73.4 °F 71.6 °F 94% 29.77 in 3.0 mi SSW 8.1 mph - N/A Rain Light Rain
5:50 PM 71.6 °F 69.8 °F 94% 29.76 in 7.0 mi Calm Calm - N/A   Mostly Cloudy
6:50 PM 73.4 °F 69.8 °F 88% 29.76 in 7.0 mi South 8.1 mph - N/A   Scattered Clouds
7:50 PM 73.4 °F 68.0 °F 83% 29.77 in 5.0 mi South 11.5 mph - N/A Rain Light Rain
8:15 PM 71.6 °F 69.8 °F 94% 29.77 in 3.0 mi South 8.1 mph - 0.02 in Rain Light Rain
8:25 PM 71.6 °F 69.8 °F 94% 29.77 in 2.0 mi SSW 11.5 mph - N/A Rain Light Rain
8:35 PM 71.6 °F 69.8 °F 94% 29.77 in 4.0 mi South 8.1 mph - 0.05 in Rain Light Rain
8:55 PM 71.6 °F 69.8 °F 94% 29.76 in 3.0 mi South 8.1 mph - 0.08 in Rain Light Rain
9:15 PM 71.6 °F 69.8 °F 94% 29.76 in 2.5 mi South 9.2 mph - 0.03 in Rain Light Rain
9:35 PM 71.6 °F 69.8 °F 94% 29.76 in 5.0 mi South 9.2 mph - 0.05 in Rain Light Rain
9:55 PM 71.6 °F 69.8 °F 94% 29.76 in 4.0 mi SSW 11.5 mph - 0.07 in Rain Light Rain
10:15 PM 69.8 °F 68.0 °F 94% 29.75 in 2.5 mi South 11.5 mph - 0.03 in Rain Light Rain
10:35 PM 69.8 °F 68.0 °F 94% 29.73 in 5.0 mi South 6.9 mph - 0.04 in Rain Light Rain
10:55 PM 69.8 °F 68.0 °F 94% 29.73 in 8.0 mi South 4.6 mph - 0.04 in Rain Light Rain
11:15 PM 69.8 °F 68.0 °F 94% 29.72 in 2.5 mi South 4.6 mph - 0.03 in Rain Light Rain
11:35 PM 69.8 °F 68.0 °F 94% 29.73 in 2.5 mi South 9.2 mph - 0.07 in Rain Light Rain
11:55 PM 69.8 °F 68.0 °F 94% 29.72 in 5.0 mi South 11.5 mph - 0.09 in Rain Light Rain